Location: Plourde
(48.6886°N, 67.9500°W)
Time: 14:09:50
(UTC+00:00)

Envisat - Visible Passes

Search period start: 01 December 2021 00:00
Search period end: 11 December 2021 00:00
Orbit: 764 x 766 km, 98.2° (Epoch: 01 December)

Date Brightness Start Highest point End Pass type
(mag) Time Alt. Az. Time Alt. Az. Time Alt. Az.
01 Dec 4.2 09:05:33 10° NNE 09:10:22 41° E 09:15:08 10° SSE visible
01 Dec 3.7 10:44:49 10° N 10:49:16 31° WNW 10:53:41 10° SW visible
01 Dec 5.9 22:05:23 10° SW 22:08:24 16° W 22:11:27 10° NW visible
02 Dec 5.4 08:29:25 10° NE 08:33:11 20° E 08:36:55 10° SE visible
02 Dec 2.9 10:07:35 10° N 10:12:37 61° WNW 10:17:36 10° SSW visible
02 Dec 5.1 21:26:38 10° SSW 21:31:09 32° W 21:35:41 10° NNW visible
03 Dec 3.3 09:30:41 10° NNE 09:35:46 68° ESE 09:40:49 10° S visible
03 Dec 4.2 11:10:37 10° NNW 11:14:18 20° WNW 11:17:58 10° WSW visible
04 Dec 4.6 08:54:09 10° NNE 08:58:44 33° E 09:03:17 10° SSE visible
04 Dec 3.4 10:33:06 10° N 10:37:47 38° WNW 10:42:26 10° SW visible
04 Dec 5.8 21:53:04 10° SW 21:56:43 20° W 22:00:22 10° NW visible
05 Dec 5.7 08:18:18 10° NE 08:21:29 16° E 08:24:39 10° SE visible
05 Dec 2.8 09:55:59 10° N 10:01:04 75° WNW 10:06:09 10° SSW visible
05 Dec 4.6 21:14:47 10° SSW 21:19:31 39° W 21:24:17 10° NNW visible
06 Dec 3.7 09:19:10 10° NNE 09:24:11 54° E 09:29:09 10° S visible
06 Dec 4.0 10:58:49 10° N 11:02:52 25° WNW 11:06:55 10° WSW visible
06 Dec 6.2 22:20:38 10° WSW 22:22:22 12° W 22:24:06 10° WNW visible
07 Dec 5.0 08:42:46 10° NE 08:47:05 27° E 08:51:21 10° SSE visible
07 Dec 3.2 10:21:26 10° N 10:26:18 46° WNW 10:31:08 10° SW visible
07 Dec 5.5 21:40:57 10° SW 21:45:01 24° W 21:49:09 10° NW visible
08 Dec 5.9 08:07:24 10° ENE 08:09:46 13° E 08:12:07 10° ESE visible
08 Dec 2.9 09:44:25 10° NNE 09:49:32 89° E 09:54:37 10° SSW visible
08 Dec 4.4 11:24:49 10° NNW 11:27:52 16° NW 11:30:54 10° W visible
08 Dec 4.2 21:02:59 10° S 21:07:54 49° W 21:12:50 10° NNW visible
09 Dec 4.1 09:07:42 10° NNE 09:12:34 44° E 09:17:24 10° S visible
09 Dec 3.7 10:47:03 10° N 10:51:25 29° WNW 10:55:46 10° WSW visible
09 Dec 6.0 22:07:51 10° WSW 22:10:38 15° W 22:13:28 10° NW visible
10 Dec 5.3 08:31:30 10° NE 08:35:24 22° E 08:39:17 10° SE visible
10 Dec 3.0 10:09:48 10° N 10:14:47 57° WNW 10:19:45 10° SSW visible
10 Dec 5.2 21:28:57 10° SSW 21:33:21 30° W 21:37:49 10° NNW visible
